Weather in Tigritskoye

Russia / Krasnoyarsk Krai     53°35′36″N   92°25′02″E
temp.,
°C
wind,
m/s
gust,
m/s
humid.,
%
clouds,
%
prec.,
mm/h
press.,
hPa
HPBL,
m
10 may, mon
mon1001:00+2wnw24935 0.1 101970
04:00+1wnw22875 0.0 102011
07:00+3wnw137945 0.0 1022178
10:00+7nw3469100 0.1 10221279
13:00+8nw3364100 0.3 10221316
16:00+9n226040 0.1 10221128
19:00+9ne236614 0.1 1021360
22:00+5ene22775 0.0 102111
11 may, tue
tue1101:00+3e23860 0.0 101957
04:00+2e36903 0.0 1017114
07:00+4e3108098 0.0 1016323
10:00+10ese4754100 0.0 1014730
13:00+15e3539100 0.0 10131713
16:00+16ene3434100 0.0 10122231
19:00+13nne3559100 0.0 1012117
22:00+10nne225791 0.0 101313
12 may, wed
wed1201:00+8n1163100 0.0 101310
04:00+6nnw1174100 0.0 101310
07:00+8nnw117395 0.0 1014106
10:00+11n3462100 0.0 1014802
13:00+15n344882 0.0 10121898
16:00+15n674473 0.0 10121813
19:00+11n69500 0.0 1014743
22:00+7n411560 0.0 1017340
13 may, thu
thu1301:00+5nnw37630 0.0 1018125
04:00+3nw35660 0.0 101996
07:00+6nnw37590 0.0 1020335
10:00+10n34410 0.0 10201550
13:00+12n34345 0.0 10191992
16:00+13nnw23336 0.0 10182156
19:00+12wsw22420 0.0 101795
22:00+7sw22490 0.0 101813
14 may, fri
fri1401:00+6se11550 0.0 101810
04:00+3ese22640 0.0 101711
07:00+6se23585 0.0 1016143
10:00+12sse334121 0.0 1013530
13:00+17wsw37325 0.0 10102153
16:00+17wsw71138100 0.0 10072747
19:00+10w61182100 1.6 10111093
22:00+5nw71484100 5.6 10171036